User: anonymous   Login
Location: Unspecified
(0.0000°N, 0.0000°E)
Time: 20:42:45
(UTC+00:00)
Language:

AEHF 1 (USA 214) - Orbit

View from above orbital plane
View from above orbital plane
View from above satellite
View from above satellite

Ground track
Ground track

The orbit data is extracted from the following two-line orbital elements,

1 36868U 10039A   21136.74424524  .00000036  00000-0  00000-0 0  9998
2 36868   3.5488  92.2929 0006333 342.3142  72.0470  1.00275594 35032
Epoch (UTC): 16 May 2021 17:51:42
Eccentricity: 0.0006333
inclination: 3.5488°
perigee height: 35758 km
apogee height: 35812 km
right ascension of ascending node: 92.2929°
argument of perigee: 342.3142°
revolutions per day: 1.00275594
mean anomaly at epoch: 72.0470°
orbit number at epoch: 3503

The dashed part of the orbit path shows where the satellite is in the earth's shadow,  

DLR